TimeCST,TemperatureF,Dew PointF,Humidity,Sea Level PressureIn,VisibilityMPH,Wind Direction,Wind SpeedMPH,Gust SpeedMPH,PrecipitationIn,Events,Conditions,WindDirDegrees,DateUTC
12:35 AM,33.8,28.4,81,30.10,10.0,West,13.8,24.2,N/A,,Overcast,280,2013-02-02 06:35:00
12:55 AM,33.8,28.4,81,30.10,10.0,West,16.1,21.9,N/A,,Overcast,280,2013-02-02 06:55:00
1:35 AM,33.8,26.6,75,30.11,10.0,West,15.0,20.7,N/A,,Mostly Cloudy,270,2013-02-02 07:35:00
1:55 AM,33.8,26.6,75,30.10,10.0,West,17.3,21.9,N/A,,Scattered Clouds,270,2013-02-02 07:55:00
2:15 AM,33.8,24.8,70,30.10,10.0,West,18.4,25.3,N/A,,Scattered Clouds,270,2013-02-02 08:15:00
2:35 AM,33.8,24.8,70,30.11,10.0,West,15.0,20.7,N/A,,Partly Cloudy,270,2013-02-02 08:35:00
2:55 AM,33.8,24.8,70,30.11,10.0,West,15.0,20.7,N/A,,Clear,270,2013-02-02 08:55:00
3:15 AM,33.8,23.0,65,30.11,10.0,West,15.0,21.9,N/A,,Scattered Clouds,270,2013-02-02 09:15:00
3:35 AM,33.8,24.8,70,30.11,10.0,West,17.3,25.3,N/A,,Scattered Clouds,260,2013-02-02 09:35:00
3:55 AM,33.8,23.0,65,30.11,10.0,West,17.3,24.2,N/A,,Scattered Clouds,270,2013-02-02 09:55:00
4:15 AM,33.8,23.0,65,30.11,10.0,West,16.1,21.9,N/A,,Scattered Clouds,280,2013-02-02 10:15:00
4:55 AM,33.8,23.0,65,30.11,10.0,West,17.3,25.3,N/A,,Clear,270,2013-02-02 10:55:00
5:15 AM,33.8,23.0,65,30.11,10.0,West,16.1,23.0,N/A,,Clear,280,2013-02-02 11:15:00
5:35 AM,33.8,23.0,65,30.11,10.0,West,13.8,23.0,N/A,,Clear,270,2013-02-02 11:35:00
5:55 AM,33.8,21.2,60,30.11,10.0,West,15.0,21.9,N/A,,Clear,270,2013-02-02 11:55:00
6:15 AM,33.8,21.2,60,30.11,10.0,West,16.1,25.3,N/A,,Clear,270,2013-02-02 12:15:00
6:35 AM,33.8,21.2,60,30.10,10.0,West,17.3,24.2,N/A,,Partly Cloudy,270,2013-02-02 12:35:00
6:55 AM,33.8,19.4,56,30.11,10.0,West,16.1,26.5,N/A,,Partly Cloudy,270,2013-02-02 12:55:00
7:15 AM,33.8,19.4,56,30.10,10.0,West,15.0,23.0,N/A,,Clear,270,2013-02-02 13:15:00
7:35 AM,33.8,19.4,56,30.10,10.0,West,13.8,23.0,N/A,,Clear,270,2013-02-02 13:35:00
7:55 AM,33.8,19.4,56,30.11,10.0,West,17.3,25.3,N/A,,Clear,270,2013-02-02 13:55:00
8:15 AM,33.8,19.4,56,30.10,10.0,West,13.8,-,N/A,,Clear,270,2013-02-02 14:15:00
8:35 AM,35.6,19.4,52,30.11,10.0,West,17.3,23.0,N/A,,Clear,270,2013-02-02 14:35:00
8:55 AM,35.6,19.4,52,30.11,10.0,West,15.0,25.3,N/A,,Clear,270,2013-02-02 14:55:00
9:15 AM,35.6,19.4,52,30.12,10.0,West,18.4,26.5,N/A,,Clear,280,2013-02-02 15:15:00
9:35 AM,35.6,19.4,52,30.11,10.0,WSW,15.0,23.0,N/A,,Clear,250,2013-02-02 15:35:00
9:55 AM,37.4,19.4,48,30.12,10.0,West,18.4,24.2,N/A,,Clear,270,2013-02-02 15:55:00
10:35 AM,37.4,19.4,48,30.12,10.0,West,19.6,32.2,N/A,,Clear,280,2013-02-02 16:35:00
10:55 AM,37.4,19.4,48,30.13,10.0,West,19.6,35.7,N/A,,Clear,270,2013-02-02 16:55:00
11:15 AM,37.4,19.4,48,30.13,10.0,West,20.7,28.8,N/A,,Partly Cloudy,280,2013-02-02 17:15:00
11:35 AM,39.2,19.4,45,30.14,10.0,West,24.2,31.1,N/A,,Clear,280,2013-02-02 17:35:00
11:55 AM,39.2,19.4,45,30.15,10.0,WNW,23.0,32.2,N/A,,Clear,290,2013-02-02 17:55:00
12:15 PM,39.2,19.4,45,30.15,10.0,West,20.7,34.5,N/A,,Scattered Clouds,280,2013-02-02 18:15:00
12:35 PM,39.2,21.2,49,30.15,10.0,West,21.9,31.1,N/A,,Mostly Cloudy,280,2013-02-02 18:35:00
12:55 PM,39.2,21.2,49,30.15,10.0,West,23.0,32.2,N/A,,Mostly Cloudy,280,2013-02-02 18:55:00
1:15 PM,37.4,21.2,52,30.15,10.0,WNW,23.0,35.7,N/A,,Overcast,290,2013-02-02 19:15:00
1:35 PM,37.4,21.2,52,30.15,10.0,WNW,24.2,35.7,N/A,,Overcast,290,2013-02-02 19:35:00
1:55 PM,37.4,23.0,56,30.16,10.0,WNW,17.3,29.9,N/A,,Overcast,290,2013-02-02 19:55:00
2:15 PM,37.4,23.0,56,30.16,10.0,West,21.9,28.8,N/A,,Overcast,280,2013-02-02 20:15:00
2:35 PM,37.4,23.0,56,30.16,10.0,West,24.2,29.9,N/A,,Overcast,280,2013-02-02 20:35:00
2:55 PM,39.2,23.0,52,30.17,10.0,WNW,21.9,34.5,N/A,,Mostly Cloudy,290,2013-02-02 20:55:00
3:15 PM,39.2,23.0,52,30.17,10.0,West,21.9,29.9,N/A,,Overcast,280,2013-02-02 21:15:00
3:35 PM,39.2,23.0,52,30.18,10.0,West,24.2,35.7,N/A,,Overcast,280,2013-02-02 21:35:00
3:55 PM,39.2,23.0,52,30.19,10.0,WNW,24.2,34.5,N/A,,Overcast,290,2013-02-02 21:55:00
4:15 PM,39.2,23.0,52,30.19,10.0,WNW,23.0,28.8,N/A,,Overcast,300,2013-02-02 22:15:00
4:35 PM,37.4,21.2,52,30.20,10.0,WNW,21.9,33.4,N/A,,Overcast,290,2013-02-02 22:35:00
4:55 PM,39.2,21.2,49,30.19,10.0,WNW,20.7,26.5,N/A,,Overcast,300,2013-02-02 22:55:00
5:15 PM,37.4,21.2,52,30.19,10.0,WNW,19.6,29.9,N/A,,Mostly Cloudy,300,2013-02-02 23:15:00
5:35 PM,37.4,21.2,52,30.19,10.0,WNW,23.0,32.2,N/A,,Mostly Cloudy,300,2013-02-02 23:35:00
5:55 PM,37.4,23.0,56,30.19,10.0,WNW,19.6,27.6,N/A,,Scattered Clouds,300,2013-02-02 23:55:00
6:15 PM,35.6,23.0,60,30.20,10.0,WNW,16.1,24.2,N/A,,Partly Cloudy,290,2013-02-03 00:15:00
6:35 PM,35.6,23.0,60,30.20,10.0,WNW,19.6,27.6,N/A,,Clear,300,2013-02-03 00:35:00
7:15 PM,33.8,23.0,65,30.20,10.0,WNW,12.7,18.4,N/A,,Partly Cloudy,300,2013-02-03 01:15:00
7:35 PM,33.8,21.2,60,30.20,10.0,WNW,16.1,21.9,N/A,,Partly Cloudy,300,2013-02-03 01:35:00
7:55 PM,33.8,19.4,56,30.20,10.0,WNW,12.7,20.7,N/A,,Clear,290,2013-02-03 01:55:00
8:15 PM,32.0,19.4,60,30.19,10.0,West,12.7,19.6,N/A,,Clear,270,2013-02-03 02:15:00
8:35 PM,32.0,21.2,64,30.18,10.0,West,11.5,-,N/A,,Clear,280,2013-02-03 02:35:00
8:55 PM,32.0,23.0,69,30.18,10.0,West,11.5,-,N/A,,Clear,280,2013-02-03 02:55:00
9:15 PM,32.0,23.0,69,30.17,10.0,West,10.4,-,N/A,,Clear,280,2013-02-03 03:15:00
9:35 PM,32.0,23.0,69,30.17,10.0,West,9.2,-,N/A,,Clear,280,2013-02-03 03:35:00
9:55 PM,32.0,23.0,69,30.17,10.0,West,6.9,-,N/A,,Clear,270,2013-02-03 03:55:00
10:35 PM,32.0,23.0,69,30.15,10.0,West,9.2,-,N/A,,Clear,260,2013-02-03 04:35:00
10:55 PM,32.0,23.0,69,30.14,10.0,West,11.5,-,N/A,,Clear,260,2013-02-03 04:55:00
11:15 PM,32.0,23.0,69,30.15,10.0,West,9.2,-,N/A,,Clear,270,2013-02-03 05:15:00
11:35 PM,32.0,23.0,69,30.15,10.0,WSW,10.4,-,N/A,,Clear,250,2013-02-03 05:35:00
11:55 PM,32.0,23.0,69,30.15,10.0,West,8.1,-,N/A,,Clear,260,2013-02-03 05:55:00